When you browse on this site, cookies collect data to enhance your experience and personalize the content and advertising you see.
Visit our Privacy Policy to learn more. By continuing to use the site, you agree to this use of cookies and data.
  • In Österreich
  • Länderverzeichnis
  • Für 7 Tage
  • Wassertemperatur
  • Satellitenkarten
  • Wetterkarte
  • News
  • Widgets
  • user-avatar
    Anmelden

    Stündliche Wetter Safaga

    Heute, 21 Januar, Montag

    Zeit Temperatur Niederschläge Wind Luftdruck Luftfeuchtigkeit
    00:00 +11°C° 0 mm 0 m/S 705 mmHg 27%
    01:00 +11°C° 0 mm 0 m/S 705 mmHg 29%
    02:00 +11°C° 0 mm 0 m/S 705 mmHg 30%
    03:00 +10°C° 0 mm 0 m/S 705 mmHg 32%
    04:00 +10°C° 0 mm 0 m/S 705 mmHg 34%
    05:00 +10°C° 0 mm 0 m/S 705 mmHg 36%
    06:00 +11°C° 0 mm 0 m/S 705 mmHg 34%
    07:00 +13°C° 0 mm 0 m/S 706 mmHg 31%
    08:00 +14°C° 0 mm 0 m/S 706 mmHg 29%
    09:00 +16°C° 0 mm 0 m/S 706 mmHg 24%
    10:00 +18°C° 0 mm 0 m/S 707 mmHg 20%
    11:00 +20°C° 0 mm 0 m/S 707 mmHg 16%
    12:00 +23°C° 0 mm 1 m/S 707 mmHg 14%
    13:00 +24°C° 0 mm 1 m/S 707 mmHg 12%
    14:00 +25°C° 0 mm 1 m/S 706 mmHg 10%
    15:00 +24°C° 0 mm 1 m/S 706 mmHg 11%
    16:00 +23°C° 0 mm 1 m/S 706 mmHg 12%
    17:00 +22°C° 0 mm 1 m/S 706 mmHg 13%
    18:00 +20°C° 0 mm 1 m/S 706 mmHg 16%
    19:00 +17°C° 0 mm 0 m/S 705 mmHg 19%
    20:00 +15°C° 0 mm 0 m/S 705 mmHg 21%
    21:00 +15°C° 0 mm 0 m/S 705 mmHg 21%
    22:00 +14°C° 0 mm 0 m/S 705 mmHg 21%
    23:00 +14°C° 0 mm 0 m/S 705 mmHg 21%

    Morgen, 22 Januar, Dienstag

    Zeit Temperatur Niederschläge Wind Luftdruck Luftfeuchtigkeit
    00:00 +13°C° 0 mm 0 m/S 705 mmHg 18%
    01:00 +13°C° 0 mm 0 m/S 705 mmHg 16%
    02:00 +13°C° 0 mm 0 m/S 705 mmHg 14%
    03:00 +13°C° 0 mm 1 m/S 704 mmHg 12%
    04:00 +13°C° 0 mm 1 m/S 704 mmHg 10%
    05:00 +13°C° 0 mm 1 m/S 704 mmHg 8%
    06:00 +14°C° 0 mm 1 m/S 705 mmHg 7%
    07:00 +16°C° 0 mm 1 m/S 705 mmHg 6%
    08:00 +18°C° 0 mm 1 m/S 706 mmHg 5%
    09:00 +20°C° 0 mm 1 m/S 706 mmHg 6%
    10:00 +21°C° 0 mm 2 m/S 707 mmHg 7%
    11:00 +24°C° 0 mm 2 m/S 707 mmHg 7%
    12:00 +24°C° 0 mm 3 m/S 707 mmHg 7%
    13:00 +25°C° 0 mm 3 m/S 706 mmHg 7%
    14:00 +26°C° 0 mm 4 m/S 706 mmHg 7%
    15:00 +24°C° 0 mm 3 m/S 705 mmHg 9%
    16:00 +22°C° 0 mm 3 m/S 705 mmHg 10%
    17:00 +21°C° 0 mm 2 m/S 705 mmHg 12%
    18:00 +20°C° 0 mm 1 m/S 705 mmHg 16%
    19:00 +18°C° 0 mm 1 m/S 705 mmHg 21%
    20:00 +14°C° 0 mm 0 m/S 705 mmHg 26%
    21:00 +14°C° 0 mm 0 m/S 705 mmHg 30%
    22:00 +13°C° 0 mm 0 m/S 705 mmHg 35%
    23:00 +12°C° 0 mm 0 m/S 705 mmHg 39%

    übermorgen, 23 Januar, Mittwoch

    Zeit Temperatur Niederschläge Wind Luftdruck Luftfeuchtigkeit
    00:00 +12°C° 0 mm 0 m/S 704 mmHg 41%
    01:00 +11°C° 0 mm 0 m/S 704 mmHg 43%
    02:00 +12°C° 0 mm 1 m/S 704 mmHg 46%
    03:00 +11°C° 0 mm 1 m/S 703 mmHg 47%
    04:00 +11°C° 0 mm 1 m/S 703 mmHg 48%
    05:00 +11°C° 0 mm 1 m/S 703 mmHg 49%
    06:00 +12°C° 0 mm 1 m/S 704 mmHg 44%
    07:00 +14°C° 0 mm 1 m/S 704 mmHg 40%
    08:00 +15°C° 0 mm 1 m/S 705 mmHg 35%
    09:00 +18°C° 0 mm 1 m/S 705 mmHg 29%
    10:00 +20°C° 0 mm 1 m/S 705 mmHg 24%
    11:00 +21°C° 0 mm 2 m/S 706 mmHg 18%
    12:00 +23°C° 0 mm 2 m/S 705 mmHg 16%
    13:00 +24°C° 0 mm 2 m/S 705 mmHg 14%
    14:00 +25°C° 0 mm 3 m/S 704 mmHg 12%
    15:00 +24°C° 0 mm 2 m/S 704 mmHg 14%
    16:00 +23°C° 0 mm 2 m/S 703 mmHg 15%
    17:00 +22°C° 0 mm 1 m/S 703 mmHg 17%
    18:00 +20°C° 0 mm 1 m/S 703 mmHg 24%
    19:00 +19°C° 0 mm 1 m/S 703 mmHg 31%
    20:00 +16°C° 0 mm 1 m/S 703 mmHg 38%
    21:00 +15°C° 0 mm 1 m/S 703 mmHg 43%
    22:00 +15°C° 0 mm 1 m/S 703 mmHg 47%
    23:00 +14°C° 0 mm 1 m/S 703 mmHg 52%

    24 Januar, Donnerstag

    Zeit Temperatur Niederschläge Wind Luftdruck Luftfeuchtigkeit
    00:00 +14°C° 0 mm 1 m/S 703 mmHg 53%
    01:00 +14°C° 0 mm 1 m/S 702 mmHg 53%
    02:00 +14°C° 0 mm 1 m/S 702 mmHg 54%
    03:00 +14°C° 0 mm 1 m/S 702 mmHg 55%
    04:00 +13°C° 0 mm 1 m/S 702 mmHg 55%
    05:00 +13°C° 0 mm 1 m/S 702 mmHg 56%
    06:00 +15°C° 0 mm 1 m/S 702 mmHg 53%
    07:00 +16°C° 0 mm 2 m/S 703 mmHg 50%
    08:00 +17°C° 0 mm 2 m/S 703 mmHg 47%
    09:00 +20°C° 0 mm 2 m/S 703 mmHg 40%
    10:00 +22°C° 0 mm 3 m/S 704 mmHg 32%
    11:00 +26°C° 0 mm 3 m/S 704 mmHg 25%
    12:00 +27°C° 0 mm 4 m/S 704 mmHg 21%
    13:00 +29°C° 0 mm 6 m/S 704 mmHg 17%
    14:00 +30°C° 0 mm 7 m/S 704 mmHg 12%
    15:00 +29°C° 0 mm 6 m/S 703 mmHg 14%
    16:00 +28°C° 0 mm 4 m/S 703 mmHg 15%
    17:00 +26°C° 0 mm 3 m/S 703 mmHg 16%
    18:00 +24°C° 0 mm 2 m/S 703 mmHg 17%
    19:00 +21°C° 0 mm 2 m/S 703 mmHg 18%
    20:00 +20°C° 0 mm 1 m/S 703 mmHg 19%
    21:00 +20°C° 0 mm 1 m/S 703 mmHg 16%
    22:00 +19°C° 0 mm 1 m/S 703 mmHg 12%
    23:00 +18°C° 0 mm 1 m/S 703 mmHg 9%

    25 Januar, Freitag

    Zeit Temperatur Niederschläge Wind Luftdruck Luftfeuchtigkeit
    00:00 +18°C° 0 mm 1 m/S 703 mmHg 8%
    01:00 +18°C° 0 mm 1 m/S 703 mmHg 7%
    02:00 +16°C° 0 mm 1 m/S 703 mmHg 6%
    03:00 +16°C° 0 mm 1 m/S 703 mmHg 10%
    04:00 +15°C° 0 mm 1 m/S 703 mmHg 15%
    05:00 +15°C° 0 mm 1 m/S 703 mmHg 19%
    06:00 +16°C° 0 mm 1 m/S 703 mmHg 24%
    07:00 +18°C° 0 mm 1 m/S 704 mmHg 29%
    08:00 +20°C° 0 mm 1 m/S 705 mmHg 35%
    09:00 +21°C° 0 mm 1 m/S 705 mmHg 33%
    10:00 +23°C° 0 mm 1 m/S 705 mmHg 32%
    11:00 +25°C° 0 mm 1 m/S 705 mmHg 31%
    12:00 +26°C° 0 mm 1 m/S 705 mmHg 28%
    13:00 +27°C° 0 mm 2 m/S 705 mmHg 24%
    14:00 +28°C° 0 mm 2 m/S 704 mmHg 21%
    15:00 +27°C° 0 mm 2 m/S 704 mmHg 22%
    16:00 +26°C° 0 mm 1 m/S 704 mmHg 24%
    17:00 +25°C° 0 mm 1 m/S 703 mmHg 25%
    18:00 +24°C° 0 mm 1 m/S 703 mmHg 33%
    19:00 +23°C° 0 mm 1 m/S 703 mmHg 41%
    20:00 +21°C° 0 mm 1 m/S 703 mmHg 49%
    21:00 +21°C° 0 mm 1 m/S 703 mmHg 54%
    22:00 +18°C° 0 mm 0 m/S 703 mmHg 59%
    23:00 +18°C° 0 mm 0 m/S 703 mmHg 64%

    26 Januar, Samstag

    Zeit Temperatur Niederschläge Wind Luftdruck Luftfeuchtigkeit
    00:00 +18°C° 0 mm 0 m/S 703 mmHg 62%
    01:00 +18°C° 0 mm 0 m/S 703 mmHg 60%
    02:00 +18°C° 0 mm 0 m/S 702 mmHg 59%
    03:00 +17°C° 0 mm 0 m/S 702 mmHg 61%
    04:00 +16°C° 0 mm 0 m/S 702 mmHg 64%
    05:00 +16°C° 0 mm 0 m/S 702 mmHg 66%
    06:00 +17°C° 0 mm 0 m/S 702 mmHg 63%
    07:00 +18°C° 0 mm 0 m/S 702 mmHg 61%
    08:00 +20°C° 0 mm 1 m/S 703 mmHg 58%
    09:00 +22°C° 0 mm 1 m/S 703 mmHg 49%
    10:00 +23°C° 0 mm 1 m/S 703 mmHg 40%
    11:00 +24°C° 0 mm 1 m/S 704 mmHg 32%
    12:00 +25°C° 0 mm 1 m/S 703 mmHg 26%
    13:00 +26°C° 0 mm 2 m/S 703 mmHg 20%
    14:00 +28°C° 0 mm 2 m/S 703 mmHg 14%
    15:00 +27°C° 0 mm 2 m/S 703 mmHg 15%
    16:00 +26°C° 0 mm 3 m/S 703 mmHg 15%
    17:00 +26°C° 0 mm 3 m/S 702 mmHg 16%
    18:00 +24°C° 0 mm 2 m/S 703 mmHg 20%
    19:00 +23°C° 0 mm 2 m/S 703 mmHg 25%
    20:00 +21°C° 0 mm 2 m/S 703 mmHg 29%
    21:00 +20°C° 0 mm 2 m/S 703 mmHg 29%
    22:00 +21°C° 0 mm 1 m/S 703 mmHg 30%
    23:00 +20°C° 0 mm 1 m/S 703 mmHg 30%
    Mehr zeigen